Regional Weather Roundup
Issued by NWS

Home | Current Version | Previous Version | Graphics & Text | Print | Product List | Glossary On
Versions: 1 2 3 4 5 6 7 8 9 10 11 12 13 14 15 16 17 18 19 20 21 22 23 24 25 26 27 28 29 30 31 32 33 34 35 36 37 38 39 40 41 42 43 44 45 46 47 48 49 50
000
ASUS43 KDMX 291107
RWRIA

WEATHER ROUNDUP FOR IOWA
NATIONAL WEATHER SERVICE DES MOINES IA
600 AM CDT SUN MAR 29 2015

NOTE: "FAIR" INDICATES FEW OR NO CLOUDS BELOW 12,000 FEET WITH NO
SIGNIFICANT WEATHER AND/OR OBSTRUCTIONS TO VISIBILITY.

* - THESE STATIONS ARE NOT NWS STATIONS...THUS NOT UNDER NWS
QUALITY CONTROL.  THEY ALSO DO NOT REPORT WEATHER SUCH
AS PRECIPITATION OR FOG.

IAZ001>003-012>014-020>022-031>034-043>046-291200-
   NORTHWEST IOWA

CITY           SKY/WX    TMP DP  RH WIND       PRES   REMARKS
CARROLL *      MOCLDY    39  36  87 SW23      29.80F WCI  29
CHEROKEE *     MOCLDY    41  36  81 SW16G23   29.75F
DENISON *      CLEAR     39  36  87 SW15G22   29.80S WCI  31
LE MARS *      CLEAR     43  36  75 SW12      29.76R
ORANGE CITY *  CLEAR     43  36  75 SW21G28   29.73R
SHELDON *      CLEAR     41  36  81 SW18G25   29.69R
SIOUX CITY     PTCLDY    44  34  67 SW8       29.80R
SPENCER        PTCLDY    39  33  79 S13G21    29.72S WCI  31
STORM LAKE *   CLEAR     37  34  87 SW21G28   29.76S WCI  27
$$

IAZ055>058-069>071-079>083-090>094-291200-
   SOUTHWEST IOWA

CITY           SKY/WX    TMP DP  RH WIND       PRES   REMARKS
ATLANTIC *     CLOUDY    39  36  87 SW14      29.89R WCI  31
AUDUBON *      CLEAR     39  34  81 S14G23    29.86F WCI  31
CLARINDA *     MIX PCPN  41  36  81 SW10      29.94R
COUNCIL BLFS * PTCLDY    41  36  81 S8G15     29.88F
CRESTON *      LGT RAIN  37  37 100 SW8G15    29.91R WCI  31
HARLAN  *      CLEAR     39  39 100 S16       29.89F WCI  30
LAMONI         CLOUDY    38  32  79 S24G33    29.87F WCI  27
RED OAK *      MOCLDY    41  36  81 SW8       29.92S
SHENANDOAH *   PTCLDY    41  36  81 SW8       29.94R
$$

IAZ047>049-059>061-072>074-084-291200-
   CENTRAL IOWA

CITY           SKY/WX    TMP DP  RH WIND       PRES   REMARKS
AMES           CLOUDY    36  30  79 S16       29.84F WCI  26
ANKENY *       CLOUDY    37  32  81 S16G22    29.86F WCI  28
CHARITON *     CLOUDY    37  32  81 S17G25    29.90F WCI  28
DES MOINES     RAIN      39  32  76 S15       29.88R WCI  31
GRINNELL*      LGT RAIN  34  28  80 SE17      29.91F WCI  23
KNOXVILLE *    MOCLDY    37  30  75 S16G23    29.90F WCI  28
MARSHALLTOWN   FRZ RAIN  33  27  78 S23G31    29.85F WCI  21
PELLA *        LGT RAIN  36  32  87 S16       29.93F WCI  26
PERRY *        CLOUDY    39  36  87 SW15      29.86R WCI  31
$$

IAZ004>006-015-016-023>025-035-036-291200-
   NORTH CENTRAL IOWA

CITY           SKY/WX    TMP DP  RH WIND       PRES   REMARKS
ALGONA *       PTCLDY    36  34  93 S23G29    29.74F WCI  24
CLARION *      CLOUDY    34  32  93 S24G32    29.77F WCI  21
ESTHERVILLE    MOCLDY    37  32  82 S22G28    29.70F WCI  26
FORT DODGE *   CLOUDY    37  30  75 S16G24    29.80S WCI  28
MASON CITY     CLOUDY    34  28  79 S23G31    29.77F WCI  22
FOREST CITY *  MOCLDY    32  30  93 S16       29.76F WCI  21
IOWA FALLS *   MIX PCPN  34  28  80 SE22      29.81F WCI  22
$$

IAZ007>011-017>019-026>030-037>042-050>054-066-291200-
   NORTHEAST IOWA

CITY           SKY/WX    TMP DP  RH WIND       PRES   REMARKS
CEDAR RAPIDS   PTCLDY    31  22  69 SE20G28   29.92F WCI  19
CHARLES CITY * LGT SNOW  32  30  93 S21G28    29.83F WCI  20
CLINTON *      PTCLDY    30  19  64 S12       30.11R WCI  21
DECORAH *      MIX PCPN  32  23  69 S16G23    29.89R WCI  21
DUBUQUE        MOCLDY    29  19  66 S16       30.00S WCI  17
MONTICELLO *   CLEAR     30  23  74 SE13      29.98F WCI  20
OELWEIN *      CLOUDY    32  25  74 S22G31    29.92R WCI  19
WATERLOO       FRZ RAIN  32  27  81 S16G26    29.88F WCI  21
$$

IAZ064-065-067-068-078-291200-
   EAST CENTRAL IOWA

CITY           SKY/WX    TMP DP  RH WIND       PRES   REMARKS
DAVENPORT      PTCLDY    33  19  56 S13       30.08R WCI  24
IOWA CITY      PTCLDY    33  23  66 SE15      30.02F WCI  23
MT. PLEASANT * CLEAR     32  23  69 SE12G18   30.02F WCI  23
MUSCATINE *    CLEAR     32  23  69 S9        30.07S WCI  24
QUAD CITIES    CLEAR     33  19  56 S10       30.08R WCI  25
$$

IAZ062-063-075>077-085>089-095>099-291200-
   SOUTHEAST IOWA

CITY           SKY/WX    TMP DP  RH WIND       PRES   REMARKS
BURLINGTON     CLEAR     33  22  63 S14       30.07R WCI  23
FAIRFIELD *    CLOUDY    36  25  64 S17G26    29.97F WCI  25
FORT MADISON * CLEAR     30  25  80 S9        30.07R WCI  22
KEOKUK *       CLEAR     36  25  64 S9        30.05R WCI  29
OSKALOOSA *    LGT RAIN  34  28  80 S12       29.99R WCI  25
CENTERVILLE *  LGT RAIN  36  32  87 SW5G22    30.02R WCI  32
OTTUMWA        MOCLDY    35  26  69 S20       29.98S WCI  24
WASHINGTON *   PTCLDY    32  25  74 S14G20    29.99F WCI  22
$$

ABBREVIATIONS USED IN REMARKS
   TC - TEMPERATURES IN CELSIUS
  WCI - WIND CHILL INDEX
   HX - HEAT INDEX
  VSB - VISIBILITY
$$



USA.gov is the U.S. government's official web portal to all federal, state and local government web resources and services.